Location: Aufkirchen
(47.9603°N, 11.3653°E)
Time: 10:54:28
(UTC+01:00)

deb Explorer IX - Pass Details

Date: 26 November 2020
Orbit: 536 x 1104 km, 38.8° (Epoch: 19 January)

Event Time Altitude Azimuth Distance (km) Brightness Sun altitude
Rises 18:39:44 0° 236° (WSW) 3,324 ? -21.7°
Reaches altitude 10° 18:42:46 10° 224° (SW) 2,282 ? -22.2°
Maximum altitude 18:47:00 25° 171° (S) 1,389 ? -22.9°
Enters shadow 18:47:38 24° 159° (SSE) 1,395 ? -23.0°
